This is the latest recevied weather packets stored in our database for station/object NI4CE-11. If no packets are shown the sender has not sent any weather packets the latest 10 day(s).
| Time | Temp. | Humidity | Pressure | Rain* | Wind** | Luminosity | Snow |
|---|---|---|---|---|---|---|---|
| 1777264235 | 23.33° C | 100% | 1013.9 hPa | 0 mm | - | - | - |
| 1777263935 | 22.78° C | 100% | 1014 hPa | 0 mm | - | - | - |
| 1777263932 | 22.22° C | 100% | 1013.9 hPa | 0 mm | - | - | - |
| 1777263635 | 23.33° C | 100% | 1013.9 hPa | 0 mm | - | - | - |
| 1777263335 | 22.22° C | 100% | 1013.9 hPa | 0 mm | - | - | - |
| 1777263140 | 21.67° C | 100% | 1013.8 hPa | 0 mm | - | - | - |
| 1777263035 | 22.22° C | 100% | 1013.8 hPa | 0 mm | - | - | - |
| 1777262735 | 21.67° C | 100% | 1013.8 hPa | 0 mm | - | - | - |
| 1777262435 | 21.11° C | 100% | 1013.7 hPa | 0 mm | - | - | - |
| 1777262135 | 21.67° C | 100% | 1013.6 hPa | 0 mm | - | - | - |
| 1777261835 | 21.67° C | 100% | 1013.7 hPa | 0 mm | - | - | - |
| 1777261535 | 22.22° C | 100% | 1013.6 hPa | 0 mm | - | - | - |
| 1777261235 | 22.78° C | 100% | 1013.6 hPa | 0 mm | - | - | - |
| 1777260935 | 23.33° C | 100% | 1013.6 hPa | 0 mm | - | - | - |
| 1777260635 | 22.78° C | 100% | 1013.6 hPa | 0 mm | - | - | - |
| 1777260475 | 24.44° C | 100% | 1013.4 hPa | 0 mm | - | - | - |
| 1777260335 | 22.78° C | 100% | 1013.5 hPa | 0 mm | - | - | - |
| 1777260035 | 22.78° C | 100% | 1013.5 hPa | 0 mm | - | - | - |
| 1777259735 | 23.33° C | 100% | 1013.5 hPa | 0 mm | - | - | - |
| 1777259435 | 24.44° C | 100% | 1013.4 hPa | 0 mm | - | - | - |
| 1777259217 | 24.44° C | 100% | 1013.2 hPa | 0 mm | - | - | - |
| 1777259135 | 24.44° C | 100% | 1013.4 hPa | 0 mm | - | - | - |
| 1777258835 | 25° C | 100% | 1013.4 hPa | 0 mm | - | - | - |
| 1777258535 | 24.44° C | 100% | 1013.4 hPa | 0 mm | - | - | - |
| 1777258235 | 24.44° C | 100% | 1013.2 hPa | 0 mm | - | - | - |
* Rain latest hour (hover to see other rain measurements)
** Current wind speed in m/s (hover to see current wind gust speed)